INSAT-3A

Last updated on Sept. 4, 2017, 12:17 a.m. UTC

1 27714U 03013A   17246.48799169 -.00000291  00000-0  00000-0 0  9994
2 27714   1.3161  87.6291 0011835 227.6801 157.4895  0.99808606 52701
UTC
Height (km)
Latitude
Longitude
Inclination
Orbital Period
UTC large
Height (km)
Speed (km/s)
/
Latitude / Longitude
Inclination (degrees)
Orbital Period (minutes)
Azimuth
Elevation
Range (km)
Doppler Factor
iOS Compass Heading
iOS Angle

Next 30 passes for location: Hong Kong

Rise time Rise Azimuth (degrees) Set time Set Azimuth (degrees) Duration Max altitude (degrees)

No matching passes for this satellites